Flag for U.S.A. Weather past 2 weeks in Augusta, Georgia, U.S.A.

Now
42 °F

Clear.


Feels Like: 40 °F
Forecast: 37 / 59 °F
Wind: 3 mph from Northwest

Location: Daniel Field

Current Time: Dec 18, 2014 at 3:40:16 AM

Latest Report: Dec 18, 2014 at 2:53 AM


Visibility: 10 mi

Pressure: 30.08 "Hg

Humidity: 82%

Dew point: 37 °F

Location of AugustaLocation

Historic Weather in Augusta — Graph

°F

Augusta temperature yesterday

Maximum temperature yesterday: 62 °F (at 3:53 PM)
Minimum temperature yesterday: 42 °F (at 6:53 AM)
Average temperature yesterday: 51 °F

Past Weeks' High & Low Weather Summary

 TemperatureHumidityPressure
High71 °F (Dec 3, 1:53 PM)100% (Dec 3, 7:53 AM)30.42 "Hg (Dec 3, 7:53 AM)
Low33 °F (Dec 11, 6:53 AM)16% (Dec 12, 2:53 PM)29.92 "Hg (Dec 16, 2:53 PM)
Average52 °F65%30.16 "Hg
* Reported Dec 3 1:53 AM — Dec 18 1:53 AM, Augusta, Weather by CustomWeather, © 2014

Note: Actual official high and low records may vary slightly from our data, if they occured in-between our weather recording intervals... More about our weather records

Advertising

Augusta weather history for previous 24 hours

 ConditionsComfort  
Time TempWeatherWind HumidityBarometerVisibility
1:53 AM
Dec 18
43 °FClear.5 mph82%30.09 "Hg10 mi
12:53 AM44 °FClear.3 mph79%30.09 "Hg10 mi
11:53 PM
Dec 17
46 °FClear.7 mph73%30.11 "Hg10 mi
10:53 PM48 °FClear.6 mph71%30.13 "Hg10 mi
9:53 PM51 °FClear.6 mph66%30.12 "Hg10 mi
8:53 PM53 °FClear.3 mph61%30.11 "Hg10 mi
7:53 PM54 °FClear.No wind59%30.11 "Hg10 mi
6:53 PM56 °FClear.3 mph55%30.11 "Hg10 mi
5:53 PM58 °FClear.5 mph51%30.10 "Hg10 mi
4:53 PM60 °FSunny.3 mph46%30.08 "Hg10 mi
3:53 PM62 °FSunny.3 mph43%30.08 "Hg10 mi
2:53 PM61 °FSunny.3 mph42%30.09 "Hg10 mi
1:53 PM61 °FSunny.7 mph44%30.09 "Hg10 mi
12:53 PM59 °FSunny.No wind48%30.11 "Hg10 mi
11:53 AM55 °FSunny.No wind55%30.15 "Hg10 mi
10:53 AM52 °FSunny.5 mph61%30.18 "Hg10 mi
9:53 AM48 °FSunny.5 mph71%30.18 "Hg10 mi
8:53 AM45 °FSunny.8 mph76%30.16 "Hg10 mi
7:53 AM42 °FSunny.3 mph85%30.16 "Hg10 mi
6:53 AM42 °FClear.No wind82%30.15 "Hg10 mi
5:53 AM43 °FClear.6 mph79%30.13 "Hg10 mi
4:53 AM44 °FClear.6 mph76%30.12 "Hg10 mi
3:53 AM45 °FClear.6 mph74%30.11 "Hg10 mi
Weather by CustomWeather, © 2014

See weather overviewHow to use our weather pages